| time (UTC) | temp F | wind direction | speed MPH | gust MPH | rain 1hr in | rain 24hr in | rain mn in | humidity % | barometer mb |
| 20260509224026 | 86 | 92 | 7.0 | 13.0 | 0.00 | 0.56 | 0.01 | 38 | 1007.9 |
| 20260509223529 | 86 | 113 | 6.0 | 13.0 | 0.00 | 0.56 | 0.01 | 37 | 1008.0 |
| 20260509223045 | 86 | 137 | 8.0 | 13.0 | 0.00 | 0.56 | 0.01 | 37 | 1008.0 |
| 20260509222528 | 86 | 119 | 5.0 | 11.0 | 0.00 | 0.56 | 0.01 | 37 | 1008.1 |
| 20260509222027 | 87 | 96 | 6.0 | 11.0 | 0.00 | 0.56 | 0.01 | 37 | 1008.1 |
| 20260509221602 | 87 | 78 | 6.0 | 10.0 | 0.00 | 0.56 | 0.01 | 38 | 1008.1 |
| 20260509221030 | 86 | 120 | 4.0 | 12.0 | 0.00 | 0.56 | 0.01 | 36 | 1008.1 |
| 20260509220529 | 86 | 130 | 6.0 | 12.0 | 0.00 | 0.56 | 0.01 | 37 | 1008.2 |
| 20260509220048 | 86 | 136 | 4.0 | 9.0 | 0.00 | 0.56 | 0.01 | 37 | 1008.2 |
| 20260509215530 | 87 | 61 | 5.0 | 11.0 | 0.00 | 0.56 | 0.01 | 35 | 1008.2 |
| 20260509215030 | 86 | 70 | 7.0 | 11.0 | 0.00 | 0.56 | 0.01 | 36 | 1008.3 |
| 20260509214540 | 86 | 130 | 5.0 | 11.0 | 0.00 | 0.56 | 0.01 | 35 | 1008.3 |
| 20260509214026 | 87 | 182 | 2.0 | 11.0 | 0.00 | 0.56 | 0.01 | 35 | 1008.3 |
| 20260509213527 | 87 | 148 | 5.0 | 11.0 | 0.00 | 0.56 | 0.01 | 34 | 1008.4 |
| 20260509213038 | 87 | 134 | 4.0 | 10.0 | 0.00 | 0.56 | 0.01 | 35 | 1008.4 |
| 20260509212532 | 87 | 141 | 4.0 | 9.0 | 0.00 | 0.56 | 0.01 | 35 | 1008.4 |
| 20260509212029 | 86 | 98 | 2.0 | 9.0 | 0.00 | 0.56 | 0.01 | 36 | 1008.5 |
| 20260509211538 | 86 | 100 | 4.0 | 10.0 | 0.00 | 0.56 | 0.01 | 37 | 1008.6 |
| 20260509211029 | 86 | 82 | 6.0 | 12.0 | 0.00 | 0.56 | 0.01 | 36 | 1008.6 |
| 20260509210529 | 86 | 118 | 4.0 | 12.0 | 0.00 | 0.56 | 0.01 | 36 | 1008.7 |
| 20260509210037 | 87 | 143 | 5.0 | 11.0 | 0.00 | 0.56 | 0.01 | 34 | 1008.8 |
| 20260509205529 | 86 | 172 | 3.0 | 10.0 | 0.00 | 0.56 | 0.01 | 34 | 1008.8 |
| 20260509205029 | 87 | 88 | 4.0 | 11.0 | 0.00 | 0.56 | 0.01 | 32 | 1008.9 |
| 20260509204541 | 87 | 98 | 5.0 | 11.0 | 0.00 | 0.56 | 0.01 | 33 | 1008.9 |
| 20260509204030 | 87 | 121 | 2.0 | 10.0 | 0.00 | 0.56 | 0.01 | 34 | 1009.0 |
| 20260509203530 | 87 | 111 | 7.0 | 10.0 | 0.00 | 0.56 | 0.01 | 33 | 1009.0 |
| 20260509203045 | 86 | 349 | 2.0 | 9.0 | 0.00 | 0.56 | 0.01 | 34 | 1009.1 |
| 20260509202530 | 86 | 326 | 2.0 | 9.0 | 0.00 | 0.56 | 0.01 | 34 | 1009.1 |
| 20260509202032 | 87 | 66 | 5.0 | 9.0 | 0.00 | 0.56 | 0.01 | 34 | 1009.2 |
| 20260509201537 | 86 | 130 | 2.0 | 5.0 | 0.00 | 0.56 | 0.01 | 35 | 1009.3 |
| 20260509201033 | 87 | 122 | 1.0 | 9.0 | 0.00 | 0.56 | 0.01 | 37 | 1009.3 |
| 20260509200532 | 85 | 118 | 2.0 | 9.0 | 0.00 | 0.56 | 0.01 | 36 | 1009.3 |
| 20260509200043 | 85 | 138 | 3.0 | 9.0 | 0.00 | 0.56 | 0.01 | 37 | 1009.4 |
| 20260509195530 | 86 | 167 | 3.0 | 7.0 | 0.00 | 0.56 | 0.01 | 36 | 1009.4 |
| 20260509195029 | 85 | 104 | 3.0 | 7.0 | 0.00 | 0.56 | 0.01 | 39 | 1009.5 |
| 20260509194538 | 86 | 186 | 2.0 | 6.0 | 0.00 | 0.56 | 0.01 | 37 | 1009.5 |
| 20260509194029 | 85 | 91 | 3.0 | 7.0 | 0.00 | 0.56 | 0.01 | 36 | 1009.6 |
| 20260509193529 | 85 | 66 | 2.0 | 8.0 | 0.00 | 0.56 | 0.01 | 38 | 1009.7 |
| 20260509193051 | 85 | 26 | 2.0 | 8.0 | 0.00 | 0.56 | 0.01 | 38 | 1009.8 |
| 20260509192530 | 85 | 94 | 3.0 | 8.0 | 0.00 | 0.56 | 0.01 | 38 | 1009.7 |
| 20260509192041 | 86 | 52 | 3.0 | 8.0 | 0.00 | 0.56 | 0.01 | 39 | 1009.7 |
| 20260509191606 | 86 | 46 | 1.0 | 8.0 | 0.00 | 0.56 | 0.01 | 37 | 1009.7 |
| 20260509191032 | 87 | 0 | 1.0 | 8.0 | 0.00 | 0.56 | 0.01 | 36 | 1009.9 |
| 20260509190533 | 86 | 36 | 4.0 | 8.0 | 0.00 | 0.56 | 0.01 | 37 | 1009.9 |
| 20260509190047 | 85 | 154 | 4.0 | 8.0 | 0.00 | 0.56 | 0.01 | 39 | 1009.9 |
| 20260509185530 | 85 | 98 | 1.0 | 7.0 | 0.00 | 0.56 | 0.01 | 38 | 1009.9 |
| 20260509185030 | 84 | 5 | 2.0 | 8.0 | 0.00 | 0.56 | 0.01 | 38 | 1010.0 |
| 20260509184541 | 84 | 85 | 4.0 | 8.0 | 0.00 | 0.56 | 0.01 | 42 | 1010.1 |
| 20260509184029 | 84 | 88 | 1.0 | 7.0 | 0.00 | 0.56 | 0.01 | 40 | 1010.2 |
| 20260509183532 | 83 | 55 | 3.0 | 10.0 | 0.00 | 0.56 | 0.01 | 40 | 1010.3 |
| 20260509183042 | 83 | 101 | 6.0 | 10.0 | 0.00 | 0.56 | 0.01 | 41 | 1010.3 |
| 20260509182530 | 83 | 77 | 6.0 | 10.0 | 0.00 | 0.56 | 0.01 | 41 | 1010.4 |
| 20260509182029 | 83 | 104 | 7.0 | 10.0 | 0.00 | 0.56 | 0.01 | 41 | 1010.4 |
| 20260509181540 | 83 | 115 | 4.0 | 9.0 | 0.00 | 0.56 | 0.01 | 43 | 1010.6 |
| 20260509181032 | 81 | 163 | 2.0 | 9.0 | 0.00 | 0.56 | 0.01 | 43 | 1010.6 |
| 20260509180530 | 82 | 148 | 5.0 | 9.0 | 0.00 | 0.56 | 0.01 | 44 | 1010.7 |
| 20260509180046 | 82 | 78 | 1.0 | 9.0 | 0.00 | 0.56 | 0.01 | 44 | 1010.9 |
| 20260509175530 | 82 | 133 | 6.0 | 9.0 | 0.00 | 0.56 | 0.01 | 43 | 1011.0 |
| 20260509175030 | 81 | 112 | 3.0 | 8.0 | 0.00 | 0.56 | 0.01 | 42 | 1011.0 |
| 20260509174548 | 81 | 134 | 4.0 | 8.0 | 0.00 | 0.56 | 0.01 | 45 | 1011.1 |
| 20260509174029 | 81 | 69 | 4.0 | 8.0 | 0.00 | 0.56 | 0.01 | 44 | 1011.2 |
| 20260509173529 | 81 | 60 | 1.0 | 6.0 | 0.00 | 0.56 | 0.01 | 46 | 1011.3 |
| 20260509173052 | 81 | 61 | 2.0 | 9.0 | 0.00 | 0.56 | 0.01 | 43 | 1011.4 |
| 20260509172530 | 80 | 110 | 5.0 | 9.0 | 0.00 | 0.56 | 0.01 | 46 | 1011.5 |
| 20260509172031 | 80 | 124 | 3.0 | 7.0 | 0.00 | 0.56 | 0.01 | 47 | 1011.5 |
| 20260509171547 | 79 | 0 | 2.0 | 8.0 | 0.00 | 0.56 | 0.01 | 48 | 1011.5 |
| 20260509171030 | 79 | 150 | 4.0 | 9.0 | 0.00 | 0.56 | 0.01 | 47 | 1011.5 |
| 20260509170530 | 80 | 159 | 5.0 | 9.0 | 0.00 | 0.56 | 0.01 | 52 | 1011.6 |
| 20260509170047 | 78 | 167 | 4.0 | 9.0 | 0.00 | 0.56 | 0.01 | 53 | 1011.5 |
| 20260509165532 | 78 | 136 | 3.0 | 10.0 | 0.00 | 0.56 | 0.01 | 56 | 1011.5 |
| 20260509165029 | 78 | 120 | 5.0 | 10.0 | 0.00 | 0.56 | 0.01 | 59 | 1011.7 |
| 20260509164549 | 77 | 152 | 5.0 | 9.0 | 0.00 | 0.56 | 0.01 | 59 | 1011.7 |
| 20260509164033 | 77 | 108 | 3.0 | 10.0 | 0.00 | 0.56 | 0.01 | 65 | 1011.7 |
| 20260509163529 | 76 | 186 | 4.0 | 10.0 | 0.00 | 0.56 | 0.01 | 64 | 1011.8 |
| 20260509163105 | 76 | 144 | 2.0 | 10.0 | 0.00 | 0.56 | 0.01 | 67 | 1011.7 |
| 20260509162531 | 75 | 159 | 6.0 | 10.0 | 0.00 | 0.56 | 0.01 | 67 | 1011.6 |
| 20260509162031 | 75 | 160 | 5.0 | 9.0 | 0.00 | 0.56 | 0.01 | 67 | 1011.8 |
| 20260509161537 | 75 | 188 | 6.0 | 9.0 | 0.00 | 0.56 | 0.01 | 69 | 1011.7 |
| 20260509161033 | 74 | 219 | 4.0 | 9.0 | 0.00 | 0.56 | 0.01 | 71 | 1011.7 |
| 20260509160530 | 73 | 126 | 5.0 | 11.0 | 0.00 | 0.56 | 0.01 | 73 | 1011.6 |
| 20260509160038 | 74 | 160 | 6.0 | 11.0 | 0.00 | 0.56 | 0.01 | 75 | 1011.6 |
| 20260509155529 | 73 | 147 | 4.0 | 11.0 | 0.00 | 0.56 | 0.01 | 74 | 1011.8 |
| 20260509155030 | 74 | 180 | 6.0 | 11.0 | 0.00 | 0.56 | 0.01 | 74 | 1011.8 |
| 20260509154546 | 73 | 201 | 4.0 | 10.0 | 0.00 | 0.56 | 0.01 | 77 | 1011.8 |
| 20260509154030 | 73 | 145 | 5.0 | 10.0 | 0.00 | 0.56 | 0.01 | 75 | 1011.7 |
| 20260509153533 | 73 | 136 | 6.0 | 10.0 | 0.00 | 0.56 | 0.01 | 74 | 1011.6 |
| 20260509153108 | 73 | 138 | 2.0 | 8.0 | 0.00 | 0.56 | 0.01 | 77 | 1011.7 |
| 20260509152532 | 72 | 128 | 3.0 | 11.0 | 0.00 | 0.56 | 0.01 | 76 | 1011.7 |
| 20260509152032 | 71 | 139 | 5.0 | 11.0 | 0.00 | 0.56 | 0.01 | 77 | 1011.9 |
| 20260509151543 | 71 | 110 | 5.0 | 10.0 | 0.00 | 0.56 | 0.01 | 77 | 1011.8 |
| 20260509151029 | 70 | 117 | 4.0 | 10.0 | 0.00 | 0.56 | 0.01 | 79 | 1011.8 |
| 20260509150531 | 70 | 156 | 5.0 | 10.0 | 0.00 | 0.56 | 0.01 | 81 | 1011.8 |
| 20260509150042 | 69 | 184 | 5.0 | 10.0 | 0.00 | 0.56 | 0.01 | 83 | 1011.8 |
| 20260509145531 | 69 | 131 | 4.0 | 8.0 | 0.00 | 0.56 | 0.01 | 85 | 1011.9 |
| 20260509145030 | 68 | 123 | 3.0 | 8.0 | 0.00 | 0.56 | 0.01 | 85 | 1011.9 |
| 20260509144546 | 68 | 140 | 2.0 | 8.0 | 0.00 | 0.56 | 0.01 | 85 | 1011.8 |
| 20260509144028 | 68 | 103 | 2.0 | 7.0 | 0.00 | 0.56 | 0.01 | 86 | 1011.6 |
| 20260509143529 | 68 | 97 | 4.0 | 7.0 | 0.00 | 0.56 | 0.01 | 86 | 1011.4 |
| 20260509143038 | 67 | 82 | 3.0 | 7.0 | 0.00 | 0.56 | 0.01 | 87 | 1011.4 |
| 20260509142528 | 67 | 92 | 3.0 | 8.0 | 0.00 | 0.56 | 0.01 | 88 | 1011.4 |
| 20260509142028 | 67 | 116 | 5.0 | 8.0 | 0.00 | 0.56 | 0.01 | 88 | 1011.3 |
| 20260509141545 | 66 | 92 | 4.0 | 8.0 | 0.00 | 0.56 | 0.01 | 90 | 1011.3 |
| 20260509141028 | 66 | 54 | 1.0 | 4.0 | 0.00 | 0.56 | 0.01 | 91 | 1011.3 |
| 20260509140528 | 65 | 130 | 0.0 | 4.0 | 0.00 | 0.56 | 0.01 | 93 | 1011.4 |
| 20260509140038 | 64 | 5 | 1.0 | 4.0 | 0.00 | 0.56 | 0.01 | 93 | 1011.5 |
| 20260509135529 | 64 | 5 | 0.0 | 3.0 | 0.00 | 0.56 | 0.01 | 94 | 1011.5 |
| 20260509135028 | 64 | 0 | 0.0 | 3.0 | 0.00 | 0.56 | 0.01 | 94 | 1011.5 |
| 20260509134553 | 63 | 5 | 0.0 | 3.0 | 0.00 | 0.56 | 0.01 | 95 | 1011.4 |
| 20260509134031 | 63 | 5 | 1.0 | 3.0 | 0.00 | 0.56 | 0.01 | 95 | 1011.4 |
| 20260509133532 | 63 | 5 | 0.0 | 2.0 | 0.00 | 0.56 | 0.01 | 95 | 1011.4 |
| 20260509133042 | 62 | 5 | 0.0 | 2.0 | 0.00 | 0.56 | 0.01 | 95 | 1011.2 |
| 20260509132528 | 62 | 0 | 0.0 | 2.0 | 0.00 | 0.56 | 0.01 | 95 | 1011.1 |
| 20260509132027 | 61 | 0 | 0.0 | 2.0 | 0.00 | 0.56 | 0.01 | 95 | 1011.0 |
| 20260509131557 | 60 | 0 | 0.0 | 2.0 | 0.00 | 0.56 | 0.01 | 95 | 1011.0 |
| 20260509131029 | 60 | 0 | 0.0 | 2.0 | 0.00 | 0.56 | 0.01 | 95 | 1011.0 |
| 20260509130531 | 60 | 0 | 0.0 | 2.0 | 0.00 | 0.56 | 0.01 | 95 | 1010.9 |
| 20260509130049 | 60 | 5 | 0.0 | 2.0 | 0.00 | 0.56 | 0.01 | 95 | 1010.8 |
| 20260509125528 | 59 | 0 | 0.0 | 2.0 | 0.00 | 0.56 | 0.01 | 95 | 1010.7 |
| 20260509125028 | 59 | 0 | 0.0 | 0.0 | 0.00 | 0.56 | 0.01 | 95 | 1010.7 |
| 20260509124543 | 59 | 0 | 0.0 | 2.0 | 0.00 | 0.56 | 0.01 | 95 | 1010.7 |
| 20260509124029 | 58 | 0 | 0.0 | 2.0 | 0.00 | 0.56 | 0.01 | 95 | 1010.5 |
| 20260509123529 | 58 | 5 | 0.0 | 2.0 | 0.01 | 0.56 | 0.01 | 95 | 1010.5 |
| 20260509123049 | 58 | 0 | 0.0 | 0.0 | 0.01 | 0.56 | 0.01 | 94 | 1010.4 |
| 20260509122554 | 57 | 0 | 0.0 | 0.0 | 0.01 | 0.56 | 0.01 | 95 | 1010.3 |
| 20260509122028 | 57 | 0 | 0.0 | 0.0 | 0.01 | 0.56 | 0.01 | 94 | 1010.4 |
| 20260509121539 | 57 | 0 | 0.0 | 2.0 | 0.01 | 0.56 | 0.01 | 94 | 1010.4 |
| 20260509121028 | 56 | 0 | 0.0 | 3.0 | 0.01 | 0.56 | 0.01 | 94 | 1010.3 |
| 20260509120530 | 56 | 5 | 0.0 | 3.0 | 0.01 | 0.56 | 0.01 | 94 | 1010.3 |
| 20260509120039 | 56 | 5 | 1.0 | 2.0 | 0.01 | 0.56 | 0.01 | 94 | 1010.3 |
| 20260509115528 | 56 | 0 | 0.0 | 3.0 | 0.01 | 0.56 | 0.01 | 94 | 1010.3 |
| 20260509115028 | 56 | 0 | 0.0 | 3.0 | 0.01 | 0.56 | 0.01 | 94 | 1010.3 |
| 20260509114538 | 56 | 5 | 1.0 | 2.0 | 0.01 | 0.56 | 0.01 | 94 | 1010.2 |
| 20260509114028 | 56 | 0 | 0.0 | 3.0 | 0.01 | 0.56 | 0.01 | 94 | 1010.2 |
| 20260509113533 | 57 | 0 | 0.0 | 3.0 | 0.00 | 0.55 | 0.00 | 94 | 1010.1 |
| 20260509113038 | 57 | 5 | 1.0 | 3.0 | 0.00 | 0.55 | 0.00 | 94 | 1009.9 |
| 20260509112528 | 57 | 5 | 0.0 | 3.0 | 0.00 | 0.55 | 0.00 | 94 | 1009.9 |
| 20260509112028 | 57 | 5 | 0.0 | 3.0 | 0.00 | 0.55 | 0.00 | 94 | 1009.7 |
| 20260509111542 | 56 | 5 | 1.0 | 3.0 | 0.00 | 0.55 | 0.00 | 94 | 1009.6 |
| 20260509111029 | 56 | 0 | 0.0 | 0.0 | 0.00 | 0.55 | 0.00 | 94 | 1009.8 |
| 20260509110531 | 56 | 0 | 0.0 | 0.0 | 0.00 | 0.55 | 0.00 | 93 | 1009.7 |
| 20260509110044 | 57 | 0 | 0.0 | 0.0 | 0.00 | 0.55 | 0.00 | 93 | 1009.5 |
| 20260509105529 | 57 | 0 | 0.0 | 0.0 | 0.00 | 0.55 | 0.00 | 93 | 1009.5 |
| 20260509105031 | 57 | 0 | 0.0 | 0.0 | 0.00 | 0.55 | 0.00 | 93 | 1009.6 |
| 20260509104548 | 57 | 0 | 0.0 | 0.0 | 0.00 | 0.55 | 0.00 | 93 | 1009.6 |
| 20260509104027 | 57 | 0 | 0.0 | 0.0 | 0.00 | 0.55 | 0.00 | 93 | 1009.6 |
| 20260509103529 | 57 | 0 | 0.0 | 0.0 | 0.00 | 0.55 | 0.00 | 93 | 1009.7 |
| 20260509103038 | 57 | 0 | 0.0 | 0.0 | 0.00 | 0.55 | 0.00 | 93 | 1009.7 |
| 20260509102532 | 57 | 0 | 0.0 | 0.0 | 0.00 | 0.55 | 0.00 | 93 | 1009.8 |
| 20260509102029 | 57 | 0 | 0.0 | 0.0 | 0.00 | 0.55 | 0.00 | 93 | 1009.8 |
| 20260509101538 | 57 | 0 | 0.0 | 0.0 | 0.00 | 0.55 | 0.00 | 93 | 1009.9 |
| 20260509101028 | 58 | 0 | 0.0 | 0.0 | 0.00 | 0.55 | 0.00 | 93 | 1010.0 |
| 20260509100528 | 58 | 0 | 0.0 | 0.0 | 0.00 | 0.55 | 0.00 | 93 | 1010.1 |
| 20260509100044 | 58 | 0 | 0.0 | 0.0 | 0.00 | 0.55 | 0.00 | 93 | 1010.2 |
| 20260509095528 | 58 | 0 | 0.0 | 1.0 | 0.00 | 0.55 | 0.00 | 93 | 1010.1 |
| 20260509095027 | 58 | 0 | 0.0 | 2.0 | 0.00 | 0.55 | 0.00 | 93 | 1010.1 |
| 20260509094539 | 58 | 0 | 0.0 | 4.0 | 0.00 | 0.55 | 0.00 | 93 | 1010.1 |
| 20260509094028 | 58 | 5 | 1.0 | 4.0 | 0.00 | 0.55 | 0.00 | 93 | 1010.1 |
| 20260509093529 | 58 | 5 | 2.0 | 4.0 | 0.00 | 0.55 | 0.00 | 93 | 1010.1 |
| 20260509093038 | 58 | 5 | 0.0 | 3.0 | 0.00 | 0.55 | 0.00 | 93 | 1010.2 |
| 20260509092527 | 58 | 0 | 0.0 | 0.0 | 0.00 | 0.55 | 0.00 | 93 | 1010.1 |
| 20260509092031 | 58 | 0 | 0.0 | 0.0 | 0.00 | 0.55 | 0.00 | 93 | 1010.1 |
| 20260509091538 | 59 | 0 | 0.0 | 0.0 | 0.00 | 0.55 | 0.00 | 93 | 1010.1 |
| 20260509091030 | 59 | 0 | 0.0 | 0.0 | 0.00 | 0.55 | 0.00 | 93 | 1009.9 |
| 20260509090529 | 59 | 0 | 0.0 | 1.0 | 0.00 | 0.55 | 0.00 | 93 | 1009.9 |
| 20260509090046 | 59 | 0 | 0.0 | 1.0 | 0.00 | 0.55 | 0.00 | 93 | 1010.0 |
| 20260509085528 | 59 | 0 | 0.0 | 0.0 | 0.00 | 0.55 | 0.00 | 93 | 1010.0 |
| 20260509085031 | 59 | 0 | 0.0 | 0.0 | 0.00 | 0.55 | 0.00 | 93 | 1010.1 |
| 20260509084551 | 59 | 0 | 0.0 | 0.0 | 0.00 | 0.55 | 0.00 | 93 | 1010.1 |
| 20260509084028 | 59 | 0 | 0.0 | 0.0 | 0.00 | 0.55 | 0.00 | 93 | 1010.1 |
| 20260509083529 | 59 | 0 | 0.0 | 0.0 | 0.00 | 0.55 | 0.00 | 93 | 1010.1 |
| 20260509083045 | 59 | 0 | 0.0 | 0.0 | 0.00 | 0.55 | 0.00 | 93 | 1010.0 |
| 20260509082529 | 59 | 0 | 0.0 | 0.0 | 0.00 | 0.55 | 0.00 | 93 | 1010.1 |
| 20260509082030 | 60 | 0 | 0.0 | 0.0 | 0.00 | 0.55 | 0.00 | 93 | 1010.3 |
| 20260509081543 | 60 | 0 | 0.0 | 2.0 | 0.00 | 0.55 | 0.00 | 93 | 1010.4 |
| 20260509081032 | 60 | 0 | 0.0 | 2.0 | 0.00 | 0.55 | 0.00 | 93 | 1010.4 |
| 20260509080528 | 60 | 0 | 0.0 | 1.0 | 0.00 | 0.55 | 0.00 | 93 | 1010.4 |
| 20260509080038 | 60 | 0 | 0.0 | 1.0 | 0.00 | 0.55 | 0.00 | 93 | 1010.4 |
| 20260509075527 | 60 | 0 | 0.0 | 0.0 | 0.00 | 0.55 | 0.00 | 93 | 1010.5 |
| 20260509075028 | 60 | 0 | 0.0 | 0.0 | 0.00 | 0.55 | 0.00 | 93 | 1010.4 |
| 20260509074540 | 60 | 0 | 0.0 | 2.0 | 0.00 | 0.55 | 0.00 | 93 | 1010.4 |
| 20260509074032 | 60 | 0 | 0.0 | 2.0 | 0.00 | 0.55 | 0.00 | 93 | 1010.5 |
| 20260509073528 | 60 | 5 | 0.0 | 2.0 | 0.00 | 0.55 | 0.00 | 93 | 1010.6 |
| 20260509073041 | 60 | 0 | 0.0 | 0.0 | 0.00 | 0.55 | 0.00 | 93 | 1010.6 |
| 20260509072539 | 60 | 0 | 0.0 | 2.0 | 0.00 | 0.55 | 0.00 | 93 | 1010.7 |
| 20260509072027 | 60 | 0 | 0.0 | 2.0 | 0.00 | 0.55 | 0.00 | 93 | 1010.6 |
| 20260509071539 | 61 | 5 | 1.0 | 2.0 | 0.00 | 0.55 | 0.00 | 93 | 1010.8 |
| 20260509071028 | 61 | 5 | 0.0 | 2.0 | 0.00 | 0.55 | 0.00 | 93 | 1010.8 |
| 20260509070528 | 61 | 0 | 0.0 | 0.0 | 0.00 | 0.55 | 0.00 | 93 | 1010.9 |
| 20260509070044 | 61 | 0 | 0.0 | 0.0 | 0.00 | 0.55 | 0.00 | 93 | 1010.9 |
| 20260509065527 | 61 | 0 | 0.0 | 0.0 | 0.00 | 0.55 | 0.00 | 93 | 1010.7 |
| 20260509065031 | 61 | 0 | 0.0 | 0.0 | 0.00 | 0.55 | 0.00 | 93 | 1010.8 |
| 20260509064538 | 61 | 0 | 0.0 | 0.0 | 0.00 | 0.55 | 0.00 | 93 | 1010.9 |
| 20260509064029 | 61 | 0 | 0.0 | 0.0 | 0.00 | 0.55 | 0.00 | 93 | 1011.1 |
| 20260509063529 | 61 | 0 | 0.0 | 0.0 | 0.00 | 0.55 | 0.00 | 93 | 1011.1 |
| 20260509063038 | 62 | 0 | 0.0 | 0.0 | 0.00 | 0.55 | 0.00 | 93 | 1011.0 |
| 20260509062532 | 62 | 0 | 0.0 | 0.0 | 0.00 | 0.55 | 0.00 | 93 | 1011.1 |
| 20260509062029 | 62 | 0 | 0.0 | 0.0 | 0.00 | 0.55 | 0.00 | 93 | 1011.2 |
| 20260509061542 | 62 | 0 | 0.0 | 0.0 | 0.00 | 0.55 | 0.00 | 93 | 1011.3 |
| 20260509061029 | 62 | 0 | 0.0 | 0.0 | 0.00 | 0.55 | 0.00 | 93 | 1011.3 |
| 20260509060531 | 62 | 0 | 0.0 | 0.0 | 0.00 | 0.55 | 0.00 | 93 | 1011.3 |
| 20260509060040 | 62 | 0 | 0.0 | 0.0 | 0.00 | 0.55 | 0.00 | 93 | 1011.4 |
| 20260509055531 | 62 | 0 | 0.0 | 0.0 | 0.00 | 0.55 | 0.00 | 93 | 1011.4 |
| 20260509055028 | 62 | 0 | 0.0 | 2.0 | 0.00 | 0.55 | 0.00 | 93 | 1011.4 |
| 20260509054548 | 62 | 0 | 0.0 | 3.0 | 0.00 | 0.55 | 0.00 | 93 | 1011.4 |
| 20260509054027 | 62 | 0 | 0.0 | 3.0 | 0.00 | 0.55 | 0.00 | 93 | 1011.4 |
| 20260509053530 | 62 | 5 | 1.0 | 3.0 | 0.00 | 0.55 | 0.00 | 93 | 1011.4 |
| 20260509053131 | 61 | 0 | 0.0 | 3.0 | 0.00 | 0.55 | 0.00 | 93 | 1011.4 |
| 20260509052527 | 61 | 0 | 0.0 | 4.0 | 0.00 | 0.55 | 0.00 | 93 | 1011.2 |
| 20260509052028 | 61 | 5 | 0.0 | 4.0 | 0.00 | 0.55 | 0.00 | 93 | 1011.1 |
| 20260509051546 | 61 | 0 | 1.0 | 8.0 | 0.00 | 0.55 | 0.00 | 93 | 1010.9 |
| 20260509051029 | 61 | 0 | 2.0 | 8.0 | 0.00 | 0.55 | 0.00 | 93 | 1010.6 |
| 20260509050529 | 61 | 22 | 4.0 | 8.0 | 0.00 | 0.55 | 0.00 | 93 | 1010.2 |
| 20260509050047 | 61 | 360 | 2.0 | 5.0 | 0.00 | 0.55 | 0.00 | 92 | 1010.2 |
| 20260509045528 | 61 | 349 | 1.0 | 5.0 | 0.00 | 0.55 | 0.55 | 92 | 1010.0 |
| 20260509045029 | 61 | 0 | 1.0 | 5.0 | 0.00 | 0.55 | 0.55 | 92 | 1010.0 |
| 20260509044537 | 61 | 46 | 3.0 | 5.0 | 0.00 | 0.55 | 0.55 | 92 | 1010.0 |
| 20260509044028 | 61 | 36 | 2.0 | 5.0 | 0.00 | 0.55 | 0.55 | 92 | 1009.9 |
| 20260509043527 | 62 | 60 | 3.0 | 4.0 | 0.00 | 0.55 | 0.55 | 92 | 1009.9 |
| 20260509043037 | 62 | 81 | 1.0 | 3.0 | 0.00 | 0.55 | 0.55 | 92 | 1009.7 |
| 20260509042531 | 62 | 0 | 0.0 | 0.0 | 0.00 | 0.55 | 0.55 | 92 | 1009.7 |
| 20260509042027 | 62 | 0 | 0.0 | 0.0 | 0.00 | 0.55 | 0.55 | 92 | 1009.9 |
| 20260509041538 | 62 | 0 | 0.0 | 0.0 | 0.00 | 0.55 | 0.55 | 92 | 1009.9 |
| 20260509041029 | 62 | 0 | 0.0 | 0.0 | 0.00 | 0.55 | 0.55 | 92 | 1009.8 |
| 20260509040529 | 62 | 0 | 0.0 | 0.0 | 0.00 | 0.55 | 0.55 | 92 | 1009.9 |
| 20260509040101 | 62 | 0 | 0.0 | 0.0 | 0.00 | 0.55 | 0.55 | 92 | 1010.0 |
| 20260509035528 | 62 | 0 | 0.0 | 1.0 | 0.00 | 0.55 | 0.55 | 92 | 1010.1 |
| 20260509035031 | 62 | 0 | 0.0 | 1.0 | 0.00 | 0.55 | 0.55 | 92 | 1010.0 |
| 20260509034541 | 62 | 0 | 0.0 | 2.0 | 0.00 | 0.55 | 0.55 | 92 | 1009.9 |
| 20260509034031 | 62 | 0 | 0.0 | 2.0 | 0.00 | 0.55 | 0.55 | 91 | 1010.0 |
| 20260509033528 | 62 | 0 | 0.0 | 3.0 | 0.00 | 0.55 | 0.55 | 91 | 1010.0 |
| 20260509033049 | 62 | 0 | 1.0 | 3.0 | 0.00 | 0.55 | 0.55 | 92 | 1010.0 |
| 20260509032527 | 63 | 143 | 1.0 | 3.0 | 0.00 | 0.55 | 0.55 | 92 | 1009.8 |
| 20260509032028 | 63 | 143 | 2.0 | 3.0 | 0.00 | 0.55 | 0.55 | 91 | 1009.8 |
| 20260509031541 | 63 | 143 | 1.0 | 4.0 | 0.00 | 0.55 | 0.55 | 91 | 1009.7 |
| 20260509031028 | 63 | 143 | 1.0 | 4.0 | 0.00 | 0.55 | 0.55 | 91 | 1009.6 |
| 20260509030527 | 63 | 132 | 1.0 | 6.0 | 0.00 | 0.55 | 0.55 | 91 | 1009.5 |
| 20260509030109 | 63 | 119 | 2.0 | 6.0 | 0.00 | 0.55 | 0.55 | 91 | 1009.5 |
| 20260509025529 | 63 | 145 | 2.0 | 6.0 | 0.00 | 0.55 | 0.55 | 91 | 1009.5 |
| 20260509025028 | 63 | 115 | 2.0 | 5.0 | 0.00 | 0.55 | 0.55 | 91 | 1009.3 |
| 20260509024544 | 63 | 157 | 1.0 | 4.0 | 0.00 | 0.55 | 0.55 | 92 | 1009.1 |
| 20260509024026 | 63 | 157 | 2.0 | 4.0 | 0.00 | 0.55 | 0.55 | 91 | 1009.1 |
| 20260509023529 | 63 | 175 | 1.0 | 3.0 | 0.00 | 0.55 | 0.55 | 91 | 1009.0 |
| 20260509023046 | 63 | 0 | 0.0 | 6.0 | 0.00 | 0.55 | 0.55 | 91 | 1008.8 |
| 20260509022532 | 64 | 135 | 2.0 | 6.0 | 0.00 | 0.55 | 0.55 | 91 | 1008.6 |
| 20260509022030 | 64 | 161 | 3.0 | 6.0 | 0.00 | 0.55 | 0.55 | 91 | 1008.6 |
| 20260509021538 | 64 | 217 | 2.0 | 3.0 | 0.00 | 0.55 | 0.55 | 91 | 1008.4 |
| 20260509021026 | 64 | 90 | 1.0 | 5.0 | 0.00 | 0.55 | 0.55 | 91 | 1008.4 |
| 20260509020528 | 64 | 0 | 2.0 | 5.0 | 0.00 | 0.55 | 0.55 | 91 | 1008.4 |
| 20260509020044 | 64 | 223 | 2.0 | 5.0 | 0.00 | 0.55 | 0.55 | 91 | 1008.4 |
| 20260509015526 | 63 | 300 | 1.0 | 4.0 | 0.00 | 0.55 | 0.55 | 91 | 1008.6 |
| 20260509015027 | 63 | 26 | 2.0 | 4.0 | 0.00 | 0.55 | 0.55 | 91 | 1008.5 |
| 20260509014540 | 63 | 0 | 0.0 | 5.0 | 0.00 | 0.55 | 0.55 | 91 | 1008.8 |
| 20260509014027 | 64 | 296 | 2.0 | 8.0 | 0.00 | 0.55 | 0.55 | 91 | 1008.7 |
| 20260509013530 | 64 | 0 | 3.0 | 8.0 | 0.00 | 0.55 | 0.55 | 91 | 1008.8 |
| 20260509013042 | 64 | 153 | 2.0 | 7.0 | 0.00 | 0.55 | 0.55 | 91 | 1008.7 |
| 20260509012527 | 64 | 167 | 4.0 | 7.0 | 0.00 | 0.55 | 0.55 | 91 | 1008.6 |
| 20260509012027 | 64 | 121 | 3.0 | 9.0 | 0.00 | 0.55 | 0.55 | 90 | 1008.3 |
| 20260509011546 | 64 | 34 | 2.0 | 9.0 | 0.00 | 0.55 | 0.55 | 90 | 1007.9 |
| 20260509011027 | 64 | 19 | 5.0 | 9.0 | 0.00 | 0.55 | 0.55 | 90 | 1008.0 |
| 20260509010526 | 64 | 83 | 5.0 | 9.0 | 0.00 | 0.55 | 0.55 | 91 | 1007.7 |
| 20260509010044 | 64 | 120 | 3.0 | 6.0 | 0.00 | 0.55 | 0.55 | 91 | 1007.5 |
| 20260509005526 | 63 | 146 | 1.0 | 4.0 | 0.00 | 0.55 | 0.55 | 90 | 1007.2 |
| 20260509005027 | 63 | 293 | 2.0 | 6.0 | 0.03 | 0.55 | 0.55 | 90 | 1007.3 |
| 20260509004543 | 63 | 242 | 1.0 | 6.0 | 0.22 | 0.55 | 0.55 | 90 | 1007.1 |
| 20260509004028 | 63 | 248 | 3.0 | 6.0 | 0.55 | 0.55 | 0.55 | 90 | 1007.1 |
| 20260509003526 | 63 | 9 | 0.0 | 3.0 | 0.55 | 0.55 | 0.55 | 89 | 1007.0 |
| 20260509003102 | 63 | 9 | 1.0 | 6.0 | 0.55 | 0.55 | 0.55 | 89 | 1007.2 |
| 20260509002525 | 63 | 217 | 3.0 | 6.0 | 0.55 | 0.55 | 0.55 | 88 | 1007.1 |
| 20260509002026 | 62 | 191 | 3.0 | 6.0 | 0.55 | 0.55 | 0.55 | 88 | 1007.1 |
| 20260509001538 | 62 | 190 | 4.0 | 8.0 | 0.55 | 0.55 | 0.55 | 87 | 1006.9 |
| 20260509001026 | 62 | 136 | 3.0 | 8.0 | 0.55 | 0.55 | 0.55 | 86 | 1006.8 |
| 20260509000531 | 62 | 67 | 4.0 | 11.0 | 0.55 | 0.55 | 0.55 | 86 | 1006.8 |
| 20260509000103 | 63 | 85 | 3.0 | 12.0 | 0.55 | 0.55 | 0.55 | 84 | 1006.7 |
| 20260508235526 | 64 | 134 | 5.0 | 12.0 | 0.55 | 0.55 | 0.55 | 82 | 1006.9 |
| 20260508235026 | 66 | 176 | 7.0 | 33.0 | 0.48 | 0.48 | 0.48 | 78 | 1008.3 |
| 20260508234543 | 68 | 288 | 11.0 | 33.0 | 0.30 | 0.30 | 0.30 | 73 | 1008.7 |
| 20260508234028 | 71 | 306 | 12.0 | 20.0 | 0.00 | 0.00 | 0.00 | 66 | 1008.6 |
| 20260508233526 | 71 | 314 | 6.0 | 11.0 | 0.00 | 0.00 | 0.00 | 66 | 1008.2 |
| 20260508233041 | 71 | 151 | 4.0 | 14.0 | 0.00 | 0.00 | 0.00 | 65 | 1006.9 |
| 20260508232525 | 72 | 277 | 1.0 | 25.0 | 0.00 | 0.00 | 0.00 | 64 | 1006.2 |
| 20260508232032 | 73 | 30 | 8.0 | 25.0 | 0.00 | 0.00 | 0.00 | 61 | 1006.6 |
| 20260508231546 | 78 | 304 | 14.0 | 25.0 | 0.00 | 0.00 | 0.00 | 52 | 1006.8 |
| 20260508231028 | 81 | 232 | 6.0 | 15.0 | 0.00 | 0.00 | 0.00 | 52 | 1006.4 |
| 20260508230528 | 81 | 163 | 8.0 | 15.0 | 0.00 | 0.00 | 0.00 | 53 | 1006.1 |
| 20260508230037 | 81 | 157 | 8.0 | 16.0 | 0.00 | 0.00 | 0.00 | 52 | 1005.7 |
| 20260508225528 | 82 | 159 | 8.0 | 16.0 | 0.00 | 0.00 | 0.00 | 51 | 1006.0 |
| 20260508225029 | 82 | 141 | 9.0 | 19.0 | 0.00 | 0.00 | 0.00 | 50 | 1006.0 |
| 20260508224542 | 83 | 188 | 11.0 | 19.0 | 0.00 | 0.00 | 0.00 | 48 | 1005.6 |